TimePDT,TemperatureF,Dew PointF,Humidity,Sea Level PressureIn,VisibilityMPH,Wind Direction,Wind SpeedMPH,Gust SpeedMPH,PrecipitationIn,Events,Conditions,WindDirDegrees,DateUTC
12:55 AM,49.6,31.5,50,30.06,10.0,Calm,Calm,-,N/A,,Clear,0,2012-10-29 07:55:00
1:55 AM,46.9,28.9,50,30.06,10.0,Calm,Calm,-,N/A,,Clear,0,2012-10-29 08:55:00
2:55 AM,46.9,30.0,52,30.06,10.0,Calm,Calm,-,N/A,,Clear,0,2012-10-29 09:55:00
3:55 AM,45.1,28.9,53,30.05,10.0,Calm,Calm,-,N/A,,Clear,0,2012-10-29 10:55:00
4:55 AM,45.7,29.1,52,30.05,10.0,Calm,Calm,-,N/A,,Clear,0,2012-10-29 11:55:00
5:55 AM,43.7,30.0,59,30.07,10.0,Calm,Calm,-,N/A,,Clear,0,2012-10-29 12:55:00
6:55 AM,43.9,28.6,55,30.09,10.0,Calm,Calm,-,N/A,,Clear,0,2012-10-29 13:55:00
7:55 AM,49.1,33.1,54,30.10,10.0,Calm,Calm,-,N/A,,Clear,0,2012-10-29 14:55:00
8:55 AM,58.5,31.3,36,30.12,10.0,Calm,Calm,-,N/A,,Clear,0,2012-10-29 15:55:00
9:55 AM,67.1,32.0,27,30.12,10.0,SSE,4.6,-,N/A,,Clear,150,2012-10-29 16:55:00
10:55 AM,74.7,40.3,29,30.12,10.0,Calm,Calm,-,N/A,,Clear,0,2012-10-29 17:55:00
11:55 AM,80.4,31.1,17,30.09,10.0,Calm,Calm,-,N/A,,Clear,0,2012-10-29 18:55:00
12:55 PM,84.2,28.4,13,30.06,10.0,NW,5.8,-,N/A,,Clear,320,2012-10-29 19:55:00
1:55 PM,85.6,23.5,10,30.04,10.0,Variable,4.6,-,N/A,,Clear,0,2012-10-29 20:55:00
2:55 PM,86.0,25.7,11,30.03,10.0,WNW,8.1,-,N/A,,Clear,300,2012-10-29 21:55:00
3:55 PM,84.6,27.1,12,30.03,10.0,NW,10.4,-,N/A,,Clear,320,2012-10-29 22:55:00
4:55 PM,82.2,32.4,17,30.02,10.0,WNW,9.2,-,N/A,,Clear,300,2012-10-29 23:55:00
5:55 PM,75.2,34.9,23,30.04,10.0,WNW,9.2,-,N/A,,Clear,290,2012-10-30 00:55:00
6:55 PM,69.4,36.3,30,30.06,10.0,West,4.6,-,N/A,,Clear,280,2012-10-30 01:55:00
7:55 PM,61.7,36.1,39,30.08,10.0,Calm,Calm,-,N/A,,Clear,0,2012-10-30 02:55:00
8:55 PM,60.1,39.4,46,30.09,10.0,West,3.5,-,N/A,,Clear,270,2012-10-30 03:55:00
9:55 PM,58.6,36.9,44,30.09,10.0,Calm,Calm,-,N/A,,Clear,0,2012-10-30 04:55:00
10:55 PM,52.9,34.3,49,30.09,10.0,Calm,Calm,-,N/A,,Clear,0,2012-10-30 05:55:00
11:55 PM,50.0,31.3,49,30.08,10.0,Calm,Calm,-,N/A,,Clear,0,2012-10-30 06:55:00